| time (UTC) | temp C | wind direction | speed KPH | gust KPH | rain 1hr cm | rain 24hr cm | rain mn cm | humidity % | barometer mb |
| 20260509032534 | 13 | 0 | 0.0 | 0.0 | 0.00 | 0.00 | 0.00 | 90 | 1014.6 |
| 20260509032033 | 13 | 0 | 0.0 | 0.0 | 0.00 | 0.00 | 0.00 | 90 | 1014.6 |
| 20260509031548 | 13 | 0 | 0.0 | 0.0 | 0.00 | 0.00 | 0.00 | 90 | 1014.6 |
| 20260509031034 | 13 | 0 | 0.0 | 0.0 | 0.00 | 0.00 | 0.00 | 89 | 1014.5 |
| 20260509030534 | 13 | 0 | 0.0 | 0.0 | 0.00 | 0.00 | 0.00 | 89 | 1014.6 |
| 20260509030044 | 13 | 0 | 0.0 | 0.0 | 0.00 | 0.00 | 0.00 | 89 | 1014.5 |
| 20260509025533 | 13 | 0 | 0.0 | 0.0 | 0.00 | 0.00 | 0.00 | 88 | 1014.6 |
| 20260509025033 | 13 | 0 | 0.0 | 0.0 | 0.00 | 0.00 | 0.00 | 88 | 1014.6 |
| 20260509024542 | 13 | 0 | 0.0 | 0.0 | 0.00 | 0.00 | 0.00 | 88 | 1014.5 |
| 20260509024033 | 14 | 0 | 0.0 | 0.0 | 0.00 | 0.00 | 0.00 | 88 | 1014.6 |
| 20260509023534 | 14 | 0 | 0.0 | 0.0 | 0.00 | 0.00 | 0.00 | 87 | 1014.6 |
| 20260509023045 | 14 | 0 | 0.0 | 0.0 | 0.00 | 0.00 | 0.00 | 87 | 1014.8 |
| 20260509022534 | 14 | 0 | 0.0 | 0.0 | 0.00 | 0.00 | 0.00 | 87 | 1014.6 |
| 20260509022034 | 14 | 0 | 0.0 | 0.0 | 0.00 | 0.00 | 0.00 | 87 | 1014.7 |
| 20260509021547 | 15 | 0 | 0.0 | 0.0 | 0.00 | 0.00 | 0.00 | 85 | 1014.8 |
| 20260509021033 | 15 | 0 | 0.0 | 0.0 | 0.00 | 0.00 | 0.00 | 84 | 1014.8 |
| 20260509020534 | 15 | 0 | 0.0 | 0.0 | 0.00 | 0.00 | 0.00 | 82 | 1014.9 |
| 20260509020043 | 15 | 0 | 0.0 | 0.0 | 0.00 | 0.00 | 0.00 | 82 | 1014.8 |
| 20260509015535 | 15 | 0 | 0.0 | 0.0 | 0.00 | 0.00 | 0.00 | 81 | 1014.8 |
| 20260509015036 | 15 | 0 | 0.0 | 0.0 | 0.00 | 0.00 | 0.00 | 79 | 1014.8 |
| 20260509014545 | 15 | 0 | 0.0 | 0.0 | 0.00 | 0.00 | 0.00 | 81 | 1014.6 |
| 20260509014035 | 15 | 0 | 0.0 | 0.0 | 0.00 | 0.00 | 0.00 | 81 | 1014.6 |
| 20260509013534 | 15 | 0 | 0.0 | 0.0 | 0.00 | 0.00 | 0.00 | 79 | 1014.4 |
| 20260509013053 | 15 | 0 | 0.0 | 0.0 | 0.00 | 0.00 | 0.00 | 80 | 1014.4 |
| 20260509012533 | 15 | 0 | 0.0 | 0.0 | 0.00 | 0.00 | 0.00 | 77 | 1014.4 |
| 20260509012033 | 15 | 0 | 0.0 | 0.0 | 0.00 | 0.00 | 0.00 | 76 | 1014.4 |
| 20260509011548 | 15 | 0 | 0.0 | 0.0 | 0.00 | 0.00 | 0.00 | 78 | 1014.5 |
| 20260509011036 | 15 | 0 | 0.0 | 0.0 | 0.00 | 0.00 | 0.00 | 76 | 1014.4 |
| 20260509010534 | 16 | 0 | 0.0 | 0.0 | 0.00 | 0.00 | 0.00 | 75 | 1014.2 |
| 20260509010043 | 16 | 0 | 0.0 | 0.0 | 0.00 | 0.00 | 0.00 | 75 | 1014.3 |
| 20260509005536 | 16 | 0 | 0.0 | 0.0 | 0.00 | 0.00 | 0.00 | 75 | 1014.2 |
| 20260509005033 | 16 | 0 | 0.0 | 1.6 | 0.00 | 0.00 | 0.00 | 74 | 1014.2 |
| 20260509004548 | 16 | 0 | 0.0 | 1.6 | 0.00 | 0.00 | 0.00 | 73 | 1014.2 |
| 20260509004034 | 16 | 0 | 0.0 | 3.2 | 0.00 | 0.00 | 0.00 | 74 | 1014.1 |
| 20260509003535 | 16 | 213 | 0.0 | 3.2 | 0.00 | 0.00 | 0.00 | 74 | 1014.1 |
| 20260509003045 | 16 | 0 | 0.0 | 4.8 | 0.00 | 0.00 | 0.00 | 74 | 1014.0 |
| 20260509002536 | 16 | 213 | 1.6 | 4.8 | 0.00 | 0.00 | 0.00 | 74 | 1014.1 |
| 20260509002034 | 16 | 179 | 0.0 | 3.2 | 0.00 | 0.00 | 0.00 | 73 | 1013.9 |
| 20260509001550 | 16 | 179 | 0.0 | 3.2 | 0.00 | 0.00 | 0.00 | 73 | 1014.0 |
| 20260509001035 | 17 | 0 | 0.0 | 1.6 | 0.00 | 0.00 | 0.00 | 73 | 1013.9 |
| 20260509000536 | 17 | 179 | 0.0 | 1.6 | 0.00 | 0.00 | 0.00 | 72 | 1013.9 |
| 20260509000045 | 17 | 0 | 0.0 | 1.6 | 0.00 | 0.00 | 0.00 | 72 | 1013.8 |
| 20260508235534 | 17 | 0 | 0.0 | 1.6 | 0.00 | 0.00 | 0.00 | 72 | 1013.8 |
| 20260508235035 | 18 | 0 | 0.0 | 1.6 | 0.00 | 0.00 | 0.00 | 72 | 1013.8 |
| 20260508234545 | 18 | 0 | 0.0 | 0.0 | 0.00 | 0.00 | 0.00 | 70 | 1013.7 |
| 20260508234034 | 18 | 0 | 0.0 | 1.6 | 0.00 | 0.00 | 0.00 | 71 | 1013.7 |
| 20260508233536 | 18 | 0 | 0.0 | 1.6 | 0.00 | 0.00 | 0.00 | 71 | 1013.9 |
| 20260508233115 | 18 | 178 | 0.0 | 1.6 | 0.00 | 0.00 | 0.00 | 69 | 1013.8 |
| 20260508232533 | 18 | 0 | 0.0 | 3.2 | 0.00 | 0.00 | 0.00 | 69 | 1013.6 |
| 20260508232033 | 18 | 0 | 0.0 | 3.2 | 0.00 | 0.00 | 0.00 | 67 | 1013.7 |
| 20260508231557 | 18 | 190 | 0.0 | 3.2 | 0.00 | 0.00 | 0.00 | 67 | 1013.7 |
| 20260508231034 | 18 | 0 | 0.0 | 3.2 | 0.00 | 0.00 | 0.00 | 67 | 1013.6 |
| 20260508230533 | 18 | 0 | 0.0 | 4.8 | 0.00 | 0.00 | 0.00 | 68 | 1013.6 |
| 20260508230045 | 18 | 194 | 0.0 | 4.8 | 0.00 | 0.00 | 0.00 | 66 | 1013.7 |
| 20260508225533 | 18 | 191 | 1.6 | 4.8 | 0.00 | 0.00 | 0.00 | 67 | 1013.6 |
| 20260508225031 | 18 | 0 | 0.0 | 1.6 | 0.00 | 0.00 | 0.00 | 65 | 1013.6 |
| 20260508224553 | 18 | 0 | 0.0 | 8.0 | 0.00 | 0.00 | 0.00 | 65 | 1013.7 |
| 20260508224035 | 19 | 0 | 0.0 | 9.7 | 0.00 | 0.00 | 0.00 | 65 | 1013.7 |
| 20260508223535 | 19 | 199 | 3.2 | 9.7 | 0.00 | 0.00 | 0.00 | 63 | 1013.8 |
| 20260508223051 | 19 | 0 | 0.0 | 16.1 | 0.00 | 0.00 | 0.00 | 62 | 1013.8 |
| 20260508222532 | 19 | 207 | 3.2 | 16.1 | 0.00 | 0.00 | 0.00 | 62 | 1013.8 |
| 20260508222033 | 19 | 153 | 1.6 | 8.0 | 0.00 | 0.00 | 0.00 | 66 | 1013.6 |
| 20260508221547 | 19 | 113 | 1.6 | 8.0 | 0.00 | 0.00 | 0.00 | 65 | 1013.6 |
| 20260508221035 | 19 | 207 | 0.0 | 11.3 | 0.00 | 0.00 | 0.00 | 60 | 1013.7 |
| 20260508220534 | 19 | 183 | 3.2 | 12.9 | 0.00 | 0.00 | 0.00 | 60 | 1013.7 |
| 20260508220046 | 19 | 204 | 0.0 | 12.9 | 0.00 | 0.00 | 0.00 | 64 | 1013.6 |
| 20260508215533 | 20 | 159 | 3.2 | 8.0 | 0.00 | 0.00 | 0.00 | 63 | 1013.7 |
| 20260508215034 | 20 | 0 | 0.0 | 11.3 | 0.00 | 0.00 | 0.00 | 60 | 1013.6 |
| 20260508214601 | 19 | 152 | 1.6 | 12.9 | 0.00 | 0.00 | 0.00 | 63 | 1013.8 |
| 20260508214036 | 19 | 180 | 4.8 | 12.9 | 0.00 | 0.00 | 0.00 | 61 | 1013.9 |
| 20260508213534 | 19 | 137 | 0.0 | 9.7 | 0.00 | 0.00 | 0.00 | 64 | 1013.7 |
| 20260508213046 | 19 | 0 | 1.6 | 9.7 | 0.00 | 0.00 | 0.00 | 64 | 1013.8 |
| 20260508212534 | 19 | 107 | 1.6 | 9.7 | 0.00 | 0.00 | 0.00 | 63 | 1013.5 |
| 20260508212035 | 19 | 109 | 0.0 | 4.8 | 0.00 | 0.00 | 0.00 | 64 | 1013.6 |
| 20260508211546 | 19 | 167 | 1.6 | 4.8 | 0.00 | 0.00 | 0.00 | 62 | 1013.6 |
| 20260508211034 | 19 | 121 | 1.6 | 4.8 | 0.00 | 0.00 | 0.00 | 63 | 1013.6 |
| 20260508210534 | 19 | 97 | 1.6 | 4.8 | 0.00 | 0.00 | 0.00 | 62 | 1013.6 |
| 20260508210047 | 19 | 73 | 1.6 | 8.0 | 0.00 | 0.00 | 0.00 | 62 | 1013.6 |
| 20260508205533 | 20 | 171 | 1.6 | 9.7 | 0.00 | 0.00 | 0.00 | 61 | 1013.7 |
| 20260508205033 | 20 | 172 | 1.6 | 9.7 | 0.00 | 0.00 | 0.00 | 60 | 1013.7 |
| 20260508204545 | 20 | 188 | 1.6 | 6.4 | 0.00 | 0.00 | 0.00 | 60 | 1013.8 |
| 20260508204033 | 19 | 92 | 1.6 | 6.4 | 0.00 | 0.00 | 0.00 | 61 | 1013.8 |
| 20260508203532 | 19 | 163 | 1.6 | 8.0 | 0.00 | 0.00 | 0.00 | 62 | 1014.0 |
| 20260508203050 | 19 | 73 | 1.6 | 8.0 | 0.00 | 0.00 | 0.00 | 60 | 1013.9 |
| 20260508202534 | 19 | 178 | 0.0 | 8.0 | 0.00 | 0.00 | 0.00 | 58 | 1014.0 |
| 20260508202034 | 19 | 115 | 1.6 | 8.0 | 0.00 | 0.00 | 0.00 | 59 | 1014.0 |
| 20260508201546 | 19 | 0 | 1.6 | 14.5 | 0.00 | 0.00 | 0.00 | 60 | 1014.0 |
| 20260508201036 | 20 | 101 | 1.6 | 14.5 | 0.00 | 0.00 | 0.00 | 58 | 1013.9 |
| 20260508200534 | 20 | 210 | 3.2 | 14.5 | 0.00 | 0.00 | 0.00 | 55 | 1014.0 |
| 20260508200046 | 20 | 192 | 3.2 | 12.9 | 0.00 | 0.00 | 0.00 | 58 | 1014.2 |
| 20260508195533 | 20 | 158 | 3.2 | 14.5 | 0.00 | 0.00 | 0.00 | 56 | 1014.3 |
| 20260508195033 | 20 | 62 | 1.6 | 14.5 | 0.00 | 0.00 | 0.00 | 59 | 1014.4 |
| 20260508194544 | 20 | 215 | 4.8 | 14.5 | 0.00 | 0.00 | 0.00 | 52 | 1014.5 |
| 20260508194035 | 20 | 198 | 4.8 | 12.9 | 0.00 | 0.00 | 0.00 | 52 | 1014.4 |
| 20260508193533 | 20 | 49 | 3.2 | 6.4 | 0.00 | 0.00 | 0.00 | 56 | 1014.6 |
| 20260508193057 | 20 | 91 | 1.6 | 12.9 | 0.00 | 0.00 | 0.00 | 55 | 1014.7 |
| 20260508192534 | 20 | 86 | 4.8 | 14.5 | 0.00 | 0.00 | 0.00 | 55 | 1015.0 |
| 20260508192038 | 20 | 139 | 4.8 | 17.7 | 0.00 | 0.00 | 0.00 | 54 | 1015.0 |
| 20260508191550 | 20 | 194 | 4.8 | 19.3 | 0.00 | 0.00 | 0.00 | 56 | 1015.0 |
| 20260508191034 | 20 | 157 | 3.2 | 19.3 | 0.00 | 0.00 | 0.00 | 55 | 1015.2 |
| 20260508190534 | 20 | 171 | 6.4 | 16.1 | 0.00 | 0.00 | 0.00 | 55 | 1015.3 |
| 20260508190104 | 20 | 0 | 3.2 | 12.9 | 0.00 | 0.00 | 0.00 | 56 | 1015.3 |
| 20260508185539 | 20 | 248 | 4.8 | 12.9 | 0.00 | 0.00 | 0.00 | 56 | 1015.5 |
| 20260508185034 | 20 | 207 | 4.8 | 12.9 | 0.00 | 0.00 | 0.00 | 54 | 1015.5 |
| 20260508184545 | 20 | 182 | 3.2 | 14.5 | 0.00 | 0.00 | 0.00 | 59 | 1015.6 |
| 20260508184034 | 20 | 306 | 4.8 | 14.5 | 0.00 | 0.00 | 0.00 | 53 | 1015.6 |
| 20260508183533 | 20 | 189 | 6.4 | 19.3 | 0.00 | 0.00 | 0.00 | 56 | 1015.5 |
| 20260508183056 | 20 | 48 | 6.4 | 19.3 | 0.00 | 0.00 | 0.00 | 55 | 1015.6 |
| 20260508182534 | 20 | 180 | 3.2 | 16.1 | 0.00 | 0.00 | 0.00 | 55 | 1016.0 |
| 20260508182034 | 20 | 110 | 3.2 | 16.1 | 0.00 | 0.00 | 0.00 | 59 | 1015.9 |
| 20260508181543 | 20 | 112 | 4.8 | 16.1 | 0.00 | 0.00 | 0.00 | 54 | 1015.8 |
| 20260508181040 | 20 | 147 | 1.6 | 11.3 | 0.00 | 0.00 | 0.00 | 61 | 1015.9 |
| 20260508180534 | 20 | 60 | 4.8 | 12.9 | 0.00 | 0.00 | 0.00 | 59 | 1015.9 |
| 20260508180056 | 20 | 165 | 3.2 | 12.9 | 0.00 | 0.00 | 0.00 | 58 | 1016.0 |
| 20260508175534 | 20 | 62 | 4.8 | 12.9 | 0.00 | 0.00 | 0.00 | 54 | 1016.1 |
| 20260508175036 | 20 | 265 | 1.6 | 9.7 | 0.00 | 0.00 | 0.00 | 62 | 1016.3 |
| 20260508174600 | 19 | 188 | 1.6 | 9.7 | 0.00 | 0.00 | 0.00 | 61 | 1016.3 |
| 20260508174034 | 18 | 164 | 3.2 | 8.0 | 0.00 | 0.00 | 0.00 | 57 | 1016.3 |
| 20260508173534 | 19 | 0 | 1.6 | 20.9 | 0.00 | 0.00 | 0.00 | 60 | 1016.3 |
| 20260508173045 | 19 | 70 | 1.6 | 24.1 | 0.00 | 0.00 | 0.00 | 58 | 1016.3 |
| 20260508172534 | 20 | 92 | 6.4 | 24.1 | 0.00 | 0.00 | 0.00 | 56 | 1016.4 |
| 20260508172034 | 20 | 101 | 4.8 | 14.5 | 0.00 | 0.00 | 0.00 | 55 | 1016.5 |
| 20260508171546 | 20 | 247 | 6.4 | 14.5 | 0.00 | 0.00 | 0.00 | 53 | 1016.7 |
| 20260508171031 | 20 | 250 | 0.0 | 14.5 | 0.00 | 0.00 | 0.00 | 61 | 1016.7 |
| 20260508170534 | 19 | 185 | 4.8 | 12.9 | 0.00 | 0.00 | 0.00 | 61 | 1016.7 |
| 20260508170049 | 19 | 288 | 4.8 | 11.3 | 0.00 | 0.00 | 0.00 | 59 | 1016.8 |
| 20260508165533 | 19 | 196 | 1.6 | 9.7 | 0.00 | 0.00 | 0.00 | 56 | 1017.0 |
| 20260508165033 | 20 | 111 | 3.2 | 9.7 | 0.00 | 0.00 | 0.00 | 58 | 1017.0 |
| 20260508164551 | 20 | 47 | 1.6 | 9.7 | 0.00 | 0.00 | 0.00 | 60 | 1017.2 |
| 20260508164034 | 19 | 304 | 1.6 | 8.0 | 0.00 | 0.00 | 0.00 | 62 | 1017.4 |
| 20260508163537 | 19 | 0 | 3.2 | 12.9 | 0.00 | 0.00 | 0.00 | 58 | 1017.3 |
| 20260508163047 | 19 | 122 | 1.6 | 14.5 | 0.00 | 0.00 | 0.00 | 58 | 1017.4 |
| 20260508162534 | 19 | 165 | 4.8 | 14.5 | 0.00 | 0.00 | 0.00 | 59 | 1017.5 |
| 20260508162033 | 19 | 197 | 3.2 | 11.3 | 0.00 | 0.00 | 0.00 | 63 | 1017.5 |
| 20260508161545 | 19 | 113 | 3.2 | 9.7 | 0.00 | 0.00 | 0.00 | 59 | 1017.5 |
| 20260508161034 | 18 | 0 | 1.6 | 6.4 | 0.00 | 0.00 | 0.00 | 54 | 1017.5 |
| 20260508160534 | 18 | 0 | 1.6 | 9.7 | 0.00 | 0.00 | 0.00 | 59 | 1017.6 |
| 20260508160049 | 18 | 140 | 3.2 | 9.7 | 0.00 | 0.00 | 0.00 | 60 | 1017.7 |
| 20260508155531 | 18 | 152 | 3.2 | 9.7 | 0.00 | 0.00 | 0.00 | 57 | 1017.7 |
| 20260508155032 | 18 | 72 | 1.6 | 8.0 | 0.00 | 0.00 | 0.00 | 56 | 1017.7 |
| 20260508154544 | 18 | 183 | 3.2 | 8.0 | 0.00 | 0.00 | 0.00 | 57 | 1017.9 |
| 20260508154031 | 18 | 220 | 1.6 | 8.0 | 0.00 | 0.00 | 0.00 | 60 | 1017.9 |
| 20260508153532 | 18 | 146 | 1.6 | 8.0 | 0.00 | 0.00 | 0.00 | 64 | 1017.9 |
| 20260508153056 | 17 | 232 | 1.6 | 6.4 | 0.00 | 0.00 | 0.00 | 61 | 1017.9 |
| 20260508152534 | 17 | 139 | 0.0 | 9.7 | 0.00 | 0.00 | 0.00 | 61 | 1017.9 |
| 20260508152034 | 17 | 132 | 3.2 | 9.7 | 0.00 | 0.00 | 0.00 | 57 | 1018.1 |
| 20260508151547 | 17 | 244 | 1.6 | 14.5 | 0.00 | 0.00 | 0.00 | 60 | 1018.0 |
| 20260508151032 | 17 | 253 | 6.4 | 19.3 | 0.00 | 0.00 | 0.00 | 64 | 1018.0 |
| 20260508150531 | 17 | 214 | 6.4 | 19.3 | 0.00 | 0.00 | 0.00 | 57 | 1018.0 |
| 20260508150046 | 17 | 180 | 1.6 | 6.4 | 0.00 | 0.00 | 0.00 | 65 | 1018.0 |
| 20260508145530 | 17 | 103 | 0.0 | 9.7 | 0.00 | 0.00 | 0.00 | 60 | 1018.0 |
| 20260508145035 | 17 | 153 | 1.6 | 9.7 | 0.00 | 0.00 | 0.00 | 65 | 1017.9 |
| 20260508144550 | 16 | 253 | 4.8 | 14.5 | 0.00 | 0.00 | 0.00 | 61 | 1018.0 |
| 20260508144035 | 16 | 211 | 4.8 | 14.5 | 0.00 | 0.00 | 0.00 | 63 | 1018.1 |
| 20260508143534 | 16 | 203 | 6.4 | 14.5 | 0.00 | 0.00 | 0.00 | 60 | 1018.0 |
| 20260508143049 | 16 | 0 | 1.6 | 8.0 | 0.00 | 0.00 | 0.00 | 62 | 1018.1 |
| 20260508142534 | 16 | 204 | 0.0 | 8.0 | 0.00 | 0.00 | 0.00 | 67 | 1018.4 |
| 20260508142034 | 16 | 104 | 1.6 | 6.4 | 0.00 | 0.00 | 0.00 | 61 | 1018.4 |
| 20260508141550 | 16 | 113 | 1.6 | 9.7 | 0.00 | 0.00 | 0.00 | 64 | 1018.4 |
| 20260508141035 | 16 | 0 | 0.0 | 9.7 | 0.00 | 0.00 | 0.00 | 71 | 1018.3 |
| 20260508140534 | 16 | 180 | 3.2 | 9.7 | 0.00 | 0.00 | 0.00 | 64 | 1018.3 |
| 20260508140046 | 16 | 198 | 3.2 | 9.7 | 0.00 | 0.00 | 0.00 | 68 | 1018.5 |
| 20260508135534 | 16 | 0 | 1.6 | 4.8 | 0.00 | 0.08 | 0.00 | 73 | 1018.5 |
| 20260508135034 | 16 | 132 | 0.0 | 4.8 | 0.00 | 0.08 | 0.00 | 74 | 1018.5 |
| 20260508134551 | 16 | 227 | 0.0 | 4.8 | 0.00 | 0.08 | 0.00 | 77 | 1018.5 |
| 20260508134034 | 15 | 0 | 0.0 | 4.8 | 0.00 | 0.08 | 0.00 | 81 | 1018.4 |
| 20260508133534 | 15 | 0 | 0.0 | 4.8 | 0.00 | 0.08 | 0.00 | 80 | 1018.4 |
| 20260508133048 | 15 | 0 | 1.6 | 6.4 | 0.00 | 0.08 | 0.00 | 77 | 1018.4 |
| 20260508132535 | 15 | 0 | 1.6 | 6.4 | 0.00 | 0.08 | 0.00 | 82 | 1018.4 |
| 20260508132034 | 15 | 48 | 0.0 | 4.8 | 0.00 | 0.08 | 0.00 | 82 | 1018.4 |
| 20260508131552 | 14 | 0 | 0.0 | 4.8 | 0.00 | 0.08 | 0.00 | 85 | 1018.4 |
| 20260508131036 | 14 | 0 | 1.6 | 4.8 | 0.00 | 0.08 | 0.00 | 84 | 1018.3 |
| 20260508130538 | 13 | 42 | 1.6 | 4.8 | 0.00 | 0.08 | 0.00 | 85 | 1018.2 |
| 20260508130048 | 13 | 70 | 0.0 | 4.8 | 0.00 | 0.08 | 0.00 | 88 | 1018.2 |
| 20260508125534 | 13 | 0 | 0.0 | 3.2 | 0.00 | 0.20 | 0.00 | 86 | 1018.3 |
| 20260508125034 | 13 | 98 | 0.0 | 3.2 | 0.00 | 0.20 | 0.00 | 87 | 1018.2 |
| 20260508124544 | 12 | 116 | 0.0 | 3.2 | 0.00 | 0.20 | 0.00 | 89 | 1018.1 |
| 20260508124033 | 12 | 67 | 1.6 | 3.2 | 0.00 | 0.20 | 0.00 | 90 | 1018.0 |
| 20260508123534 | 12 | 0 | 0.0 | 3.2 | 0.00 | 0.20 | 0.00 | 92 | 1017.9 |
| 20260508123047 | 11 | 0 | 1.6 | 3.2 | 0.00 | 0.20 | 0.00 | 92 | 1017.9 |
| 20260508122534 | 11 | 65 | 0.0 | 3.2 | 0.00 | 0.20 | 0.00 | 93 | 1017.9 |
| 20260508122033 | 10 | 0 | 0.0 | 3.2 | 0.00 | 0.20 | 0.00 | 94 | 1017.9 |
| 20260508121544 | 10 | 65 | 1.6 | 3.2 | 0.00 | 0.20 | 0.00 | 94 | 1017.8 |
| 20260508121034 | 10 | 69 | 0.0 | 3.2 | 0.00 | 0.20 | 0.00 | 95 | 1017.7 |
| 20260508120534 | 10 | 300 | 0.0 | 3.2 | 0.00 | 0.20 | 0.00 | 96 | 1017.6 |
| 20260508115534 | 9 | 0 | 0.0 | 0.0 | 0.00 | 0.41 | 0.00 | 96 | 1017.5 |
| 20260508115033 | 9 | 0 | 0.0 | 0.0 | 0.00 | 0.41 | 0.00 | 96 | 1017.5 |
| 20260508114554 | 8 | 0 | 0.0 | 1.6 | 0.00 | 0.41 | 0.00 | 96 | 1017.4 |
| 20260508114037 | 8 | 0 | 0.0 | 1.6 | 0.00 | 0.41 | 0.00 | 96 | 1017.3 |
| 20260508113534 | 8 | 0 | 0.0 | 1.6 | 0.00 | 0.41 | 0.00 | 96 | 1017.2 |
| 20260508113053 | 8 | 0 | 0.0 | 0.0 | 0.00 | 0.41 | 0.00 | 95 | 1017.2 |
| 20260508112534 | 8 | 0 | 0.0 | 1.6 | 0.00 | 0.41 | 0.00 | 95 | 1017.0 |
| 20260508112034 | 8 | 0 | 0.0 | 1.6 | 0.00 | 0.41 | 0.00 | 95 | 1016.9 |
| 20260508111546 | 8 | 0 | 0.0 | 1.6 | 0.00 | 0.41 | 0.00 | 96 | 1016.8 |
| 20260508111033 | 8 | 300 | 0.0 | 1.6 | 0.00 | 0.41 | 0.00 | 96 | 1016.8 |
| 20260508110531 | 8 | 0 | 0.0 | 1.6 | 0.00 | 0.41 | 0.00 | 95 | 1016.8 |
| 20260508110100 | 8 | 0 | 0.0 | 1.6 | 0.00 | 0.41 | 0.00 | 95 | 1016.7 |
| 20260508105534 | 8 | 0 | 0.0 | 1.6 | 0.00 | 0.43 | 0.00 | 95 | 1016.6 |
| 20260508105034 | 8 | 0 | 0.0 | 1.6 | 0.00 | 0.43 | 0.00 | 95 | 1016.5 |
| 20260508104547 | 8 | 0 | 0.0 | 1.6 | 0.00 | 0.43 | 0.00 | 95 | 1016.5 |
| 20260508104034 | 8 | 0 | 0.0 | 1.6 | 0.00 | 0.43 | 0.00 | 95 | 1016.4 |
| 20260508103531 | 8 | 0 | 0.0 | 1.6 | 0.00 | 0.43 | 0.00 | 95 | 1016.3 |
| 20260508103058 | 8 | 0 | 0.0 | 1.6 | 0.00 | 0.43 | 0.00 | 95 | 1016.3 |
| 20260508102533 | 8 | 0 | 0.0 | 1.6 | 0.00 | 0.43 | 0.00 | 94 | 1016.3 |
| 20260508102031 | 8 | 0 | 0.0 | 0.0 | 0.00 | 0.43 | 0.00 | 94 | 1016.1 |
| 20260508101550 | 8 | 0 | 0.0 | 3.2 | 0.00 | 0.43 | 0.00 | 95 | 1016.2 |
| 20260508101034 | 8 | 0 | 0.0 | 3.2 | 0.00 | 0.43 | 0.00 | 95 | 1015.9 |
| 20260508100531 | 8 | 0 | 0.0 | 0.0 | 0.00 | 0.43 | 0.00 | 95 | 1015.8 |
| 20260508100046 | 8 | 0 | 0.0 | 0.0 | 0.00 | 0.43 | 0.00 | 95 | 1015.7 |
| 20260508095531 | 8 | 0 | 0.0 | 3.2 | 0.00 | 0.43 | 0.00 | 95 | 1015.7 |
| 20260508095030 | 8 | 0 | 0.0 | 3.2 | 0.00 | 0.43 | 0.00 | 95 | 1015.8 |
| 20260508094546 | 8 | 290 | 1.6 | 3.2 | 0.00 | 0.43 | 0.00 | 95 | 1015.5 |
| 20260508094030 | 8 | 290 | 0.0 | 1.6 | 0.00 | 0.43 | 0.00 | 95 | 1015.5 |
| 20260508093531 | 8 | 0 | 0.0 | 1.6 | 0.00 | 0.43 | 0.00 | 95 | 1015.7 |
| 20260508093046 | 8 | 290 | 0.0 | 1.6 | 0.00 | 0.43 | 0.00 | 95 | 1015.6 |
| 20260508092531 | 8 | 0 | 0.0 | 1.6 | 0.00 | 0.43 | 0.00 | 96 | 1015.6 |
| 20260508092031 | 8 | 0 | 0.0 | 1.6 | 0.00 | 0.43 | 0.00 | 95 | 1015.6 |
| 20260508091549 | 8 | 0 | 0.0 | 1.6 | 0.00 | 0.43 | 0.00 | 95 | 1015.5 |
| 20260508091032 | 8 | 0 | 0.0 | 3.2 | 0.00 | 0.43 | 0.00 | 95 | 1015.6 |
| 20260508090533 | 8 | 0 | 0.0 | 3.2 | 0.00 | 0.43 | 0.00 | 95 | 1015.6 |
| 20260508090052 | 8 | 263 | 1.6 | 3.2 | 0.00 | 0.43 | 0.00 | 95 | 1015.6 |
| 20260508085532 | 8 | 0 | 0.0 | 1.6 | 0.00 | 0.56 | 0.00 | 95 | 1015.5 |
| 20260508085031 | 8 | 0 | 0.0 | 1.6 | 0.00 | 0.56 | 0.00 | 95 | 1015.5 |
| 20260508084543 | 8 | 0 | 0.0 | 1.6 | 0.00 | 0.56 | 0.00 | 95 | 1015.4 |
| 20260508084031 | 8 | 0 | 0.0 | 1.6 | 0.00 | 0.56 | 0.00 | 94 | 1015.5 |
| 20260508083533 | 8 | 0 | 0.0 | 1.6 | 0.00 | 0.56 | 0.00 | 94 | 1015.5 |
| 20260508083048 | 8 | 0 | 0.0 | 1.6 | 0.00 | 0.56 | 0.00 | 94 | 1015.3 |
| 20260508082531 | 8 | 0 | 0.0 | 0.0 | 0.00 | 0.56 | 0.00 | 93 | 1015.2 |
| 20260508082033 | 8 | 0 | 0.0 | 0.0 | 0.00 | 0.56 | 0.00 | 93 | 1015.3 |
| 20260508081548 | 8 | 0 | 0.0 | 0.0 | 0.00 | 0.56 | 0.00 | 93 | 1015.4 |
| 20260508081031 | 8 | 0 | 0.0 | 0.0 | 0.00 | 0.56 | 0.00 | 93 | 1015.2 |
| 20260508080535 | 8 | 0 | 0.0 | 0.0 | 0.00 | 0.56 | 0.00 | 93 | 1015.2 |
| 20260508080054 | 8 | 0 | 0.0 | 0.0 | 0.00 | 0.56 | 0.00 | 93 | 1015.1 |
| 20260508075534 | 8 | 0 | 0.0 | 1.6 | 0.00 | 0.56 | 0.00 | 94 | 1015.1 |
| 20260508075033 | 8 | 0 | 0.0 | 1.6 | 0.00 | 0.56 | 0.00 | 94 | 1015.0 |
| 20260508074547 | 8 | 0 | 0.0 | 1.6 | 0.00 | 0.56 | 0.00 | 93 | 1015.1 |
| 20260508074031 | 8 | 0 | 0.0 | 1.6 | 0.00 | 0.56 | 0.00 | 93 | 1014.9 |
| 20260508073534 | 8 | 0 | 0.0 | 1.6 | 0.00 | 0.56 | 0.00 | 93 | 1014.9 |
| 20260508073055 | 8 | 0 | 0.0 | 0.0 | 0.00 | 0.56 | 0.00 | 93 | 1014.7 |
| 20260508072534 | 8 | 0 | 0.0 | 0.0 | 0.00 | 0.56 | 0.00 | 93 | 1014.7 |
| 20260508072034 | 8 | 0 | 0.0 | 0.0 | 0.00 | 0.56 | 0.00 | 92 | 1014.9 |
| 20260508071545 | 8 | 0 | 0.0 | 0.0 | 0.00 | 0.56 | 0.00 | 92 | 1014.8 |
| 20260508071031 | 8 | 0 | 0.0 | 0.0 | 0.00 | 0.56 | 0.00 | 92 | 1014.7 |
| 20260508070534 | 8 | 0 | 0.0 | 0.0 | 0.00 | 0.56 | 0.00 | 92 | 1014.6 |
| 20260508070043 | 9 | 0 | 0.0 | 0.0 | 0.00 | 0.56 | 0.00 | 92 | 1014.6 |
| 20260508065535 | 9 | 0 | 0.0 | 0.0 | 0.00 | 0.61 | 0.00 | 92 | 1014.5 |
| 20260508065035 | 9 | 0 | 0.0 | 0.0 | 0.00 | 0.61 | 0.00 | 92 | 1014.5 |
| 20260508064548 | 9 | 0 | 0.0 | 0.0 | 0.00 | 0.61 | 0.00 | 91 | 1014.4 |
| 20260508064037 | 9 | 0 | 0.0 | 3.2 | 0.00 | 0.61 | 0.00 | 91 | 1014.5 |
| 20260508063535 | 9 | 0 | 0.0 | 3.2 | 0.00 | 0.61 | 0.00 | 91 | 1014.5 |
| 20260508063100 | 9 | 0 | 0.0 | 3.2 | 0.00 | 0.61 | 0.00 | 92 | 1014.5 |
| 20260508062533 | 9 | 0 | 0.0 | 0.0 | 0.00 | 0.61 | 0.00 | 91 | 1014.4 |
| 20260508062034 | 9 | 0 | 0.0 | 0.0 | 0.00 | 0.61 | 0.00 | 91 | 1014.4 |
| 20260508061547 | 9 | 0 | 0.0 | 0.0 | 0.00 | 0.61 | 0.00 | 91 | 1014.5 |
| 20260508061034 | 10 | 0 | 0.0 | 0.0 | 0.00 | 0.61 | 0.00 | 91 | 1014.3 |
| 20260508060534 | 10 | 0 | 0.0 | 1.6 | 0.00 | 0.61 | 0.00 | 91 | 1014.4 |
| 20260508060049 | 10 | 0 | 0.0 | 3.2 | 0.00 | 0.61 | 0.00 | 90 | 1014.4 |
| 20260508055534 | 10 | 0 | 0.0 | 3.2 | 0.00 | 0.76 | 0.00 | 91 | 1014.4 |
| 20260508055031 | 10 | 138 | 0.0 | 3.2 | 0.00 | 0.76 | 0.00 | 90 | 1014.4 |
| 20260508054543 | 10 | 0 | 0.0 | 3.2 | 0.00 | 0.76 | 0.00 | 89 | 1014.5 |
| 20260508054035 | 10 | 165 | 0.0 | 0.0 | 0.00 | 0.76 | 0.00 | 89 | 1014.5 |
| 20260508053534 | 10 | 0 | 0.0 | 0.0 | 0.00 | 0.76 | 0.00 | 88 | 1014.5 |
| 20260508053046 | 10 | 0 | 0.0 | 0.0 | 0.00 | 0.76 | 0.00 | 89 | 1014.5 |
| 20260508052534 | 10 | 0 | 0.0 | 0.0 | 0.00 | 0.76 | 0.00 | 89 | 1014.4 |
| 20260508052034 | 10 | 0 | 0.0 | 0.0 | 0.00 | 0.76 | 0.00 | 87 | 1014.4 |
| 20260508051543 | 10 | 0 | 0.0 | 0.0 | 0.00 | 0.76 | 0.00 | 87 | 1014.3 |
| 20260508051036 | 10 | 0 | 0.0 | 0.0 | 0.00 | 0.76 | 0.00 | 88 | 1014.3 |
| 20260508050535 | 10 | 0 | 0.0 | 1.6 | 0.00 | 0.76 | 0.00 | 87 | 1014.4 |
| 20260508050044 | 11 | 0 | 0.0 | 1.6 | 0.00 | 0.76 | 0.00 | 87 | 1014.3 |
| 20260508045530 | 11 | 213 | 0.0 | 3.2 | 0.00 | 0.99 | 0.00 | 87 | 1014.2 |
| 20260508045034 | 11 | 0 | 0.0 | 3.2 | 0.00 | 0.99 | 0.00 | 85 | 1014.2 |
| 20260508044545 | 11 | 159 | 0.0 | 3.2 | 0.00 | 0.99 | 0.00 | 85 | 1014.1 |
| 20260508044033 | 11 | 159 | 0.0 | 3.2 | 0.00 | 0.99 | 0.00 | 85 | 1014.2 |
| 20260508043534 | 11 | 0 | 0.0 | 3.2 | 0.00 | 0.99 | 0.00 | 85 | 1014.1 |
| 20260508043056 | 11 | 0 | 0.0 | 3.2 | 0.00 | 0.99 | 0.00 | 86 | 1014.1 |
| 20260508042534 | 11 | 0 | 0.0 | 3.2 | 0.00 | 0.99 | 0.00 | 86 | 1014.1 |
| 20260508042031 | 11 | 0 | 0.0 | 3.2 | 0.00 | 0.99 | 0.00 | 84 | 1013.9 |
| 20260508041550 | 11 | 0 | 0.0 | 3.2 | 0.00 | 0.99 | 0.00 | 84 | 1013.9 |
| 20260508041031 | 11 | 131 | 0.0 | 3.2 | 0.00 | 0.99 | 0.00 | 82 | 1013.9 |
| 20260508040531 | 11 | 0 | 0.0 | 3.2 | 0.00 | 0.99 | 0.00 | 82 | 1013.8 |
| 20260508040045 | 11 | 0 | 0.0 | 3.2 | 0.00 | 0.99 | 0.00 | 82 | 1014.0 |
| 20260508035530 | 11 | 0 | 0.0 | 3.2 | 0.00 | 0.99 | 0.99 | 83 | 1014.0 |
| 20260508035034 | 12 | 99 | 0.0 | 4.8 | 0.00 | 0.99 | 0.99 | 82 | 1013.9 |
| 20260508034547 | 12 | 0 | 0.0 | 4.8 | 0.00 | 0.99 | 0.99 | 82 | 1014.0 |
| 20260508034030 | 12 | 181 | 0.0 | 3.2 | 0.00 | 0.99 | 0.99 | 82 | 1014.0 |
| 20260508033531 | 12 | 0 | 0.0 | 3.2 | 0.00 | 0.99 | 0.99 | 77 | 1014.0 |
| 20260508033048 | 12 | 252 | 0.0 | 3.2 | 0.00 | 0.99 | 0.99 | 78 | 1014.0 |